Weather History for Williston, ND

Change the Weather History Date:

Tuesday, April 23, 2013

  Actual Average Record
Temperature  
Mean Temperature 36 °F 46 °F  
Max Temperature 50 °F 61 °F 87 °F (2012)
Min Temperature 22 °F 32 °F 14 °F (2008)
Degree Days  
Heating Degree Days 29 19  
Month to date heating degree days 784 531  
Since 1 July heating degree days 8822 8406  
Cooling Degree Days 0 0  
Month to date cooling degree days 0 0  
Year to date cooling degree days 0 0  
Moisture  
Dew Point 23 °F    
Average Humidity 67    
Maximum Humidity 100    
Minimum Humidity 34    
Precipitation  
Precipitation 0.01 in 0.04 in 1.27 in (1961)
Month to date precipitation 0.81 0.70  
Year to date precipitation 2.80 2.39  
Sea Level Pressure  
Sea Level Pressure 30.19 in    
Wind  
Wind Speed 10 mph (West)    
Max Wind Speed 25 mph    
Max Gust Speed 31 mph    
Visibility 10 miles    
Events Snow    
T = Trace of Precipitation, MM = Missing Value Source: NWS Daily Summary

Daily Weather History Graph

Daily Weather History Graph

Search for Another Location

Airport:

Trip Planner

Search our weather history database for the weather conditions in past years. The results will help you decide how hot, cold, wet, or windy it might be!

Date:

Astronomy

Apr. 23, 2013 Rise Set
Actual Time 6:49 AM CDT 8:57 PM CDT
Civil Twilight 6:15 AM CDT 9:31 PM CDT
Nautical Twilight 5:33 AM CDT 10:13 PM CDT
Astronomical Twilight 4:46 AM CDT 11:00 PM CDT
Moon 6:47 PM CDT (4/23) 5:29 AM CDT (4/23)
Length of Visible Light 15h 15m
Length of Day
14h 07m
Waxing Gibbous, 94% of the Moon is Illuminated
Apr 23
Waxing Gibbous
Apr 25
Full
May 2
Last Quarter
May 9
New
May 17
First Quarter

Hourly Weather History & Observations

Time (CDT) Temp. Windchill Dew Point Humidity Pressure Visibility Wind Dir Wind Speed Gust Speed Precip Events Conditions
12:52 AM 21.9 °F 17.2 °F 18.0 °F 85% 30.42 in 10.0 mi SSW 3.5 mph - N/A   Clear
1:52 AM 23.0 °F 17.0 °F 19.9 °F 88% 30.40 in 10.0 mi SSW 4.6 mph - N/A   Clear
2:52 AM 24.1 °F 15.2 °F 19.0 °F 81% 30.36 in 10.0 mi SW 8.1 mph - N/A   Clear
3:52 AM 24.1 °F 15.2 °F 19.0 °F 81% 30.34 in 10.0 mi SW 8.1 mph - N/A   Clear
4:52 AM 23.0 °F 13.9 °F 19.0 °F 85% 30.32 in 10.0 mi SW 8.1 mph - N/A   Clear
5:52 AM 23.0 °F 13.9 °F 18.0 °F 81% 30.30 in 10.0 mi SW 8.1 mph - N/A   Clear
6:52 AM 21.9 °F 11.7 °F 19.0 °F 89% 30.28 in 10.0 mi SW 9.2 mph - N/A   Clear
7:52 AM 26.1 °F 15.6 °F 21.0 °F 81% 30.26 in 10.0 mi WSW 11.5 mph - N/A   Clear
8:52 AM 32.0 °F 22.5 °F 23.0 °F 69% 30.26 in 10.0 mi West 12.7 mph - N/A   Clear
9:52 AM 35.1 °F 25.5 °F 24.1 °F 64% 30.25 in 10.0 mi West 15.0 mph 24.2 mph N/A   Clear
10:52 AM 37.9 °F 28.5 °F 21.9 °F 53% 30.22 in 10.0 mi West 17.3 mph 26.5 mph N/A   Mostly Cloudy
11:52 AM 43.0 °F 34.2 °F 21.0 °F 42% 30.20 in 10.0 mi West 20.7 mph 28.8 mph N/A   Clear
12:52 PM 46.0 °F 38.5 °F 21.9 °F 39% 30.17 in 10.0 mi West 19.6 mph 26.5 mph N/A   Clear
1:52 PM 48.0 °F - 21.9 °F 36% 30.14 in 10.0 mi WNW 19.6 mph - N/A   Partly Cloudy
2:52 PM 46.0 °F 39.6 °F 19.9 °F 35% 30.12 in 10.0 mi WNW 15.0 mph - N/A   Overcast
3:44 PM 44.6 °F 38.8 °F 21.2 °F 39% 30.05 in 10.0 mi NNW 11.5 mph 28.8 mph N/A   Overcast
3:52 PM 45.0 °F 38.5 °F 21.9 °F 40% 30.11 in 10.0 mi NW 13.8 mph 24.2 mph N/A   Overcast
4:52 PM 45.0 °F 40.1 °F 21.9 °F 40% 30.10 in 10.0 mi WNW 9.2 mph 20.7 mph N/A   Overcast
5:52 PM 44.1 °F 39.0 °F 24.1 °F 45% 30.09 in 10.0 mi NNW 9.2 mph - N/A   Overcast
6:52 PM 44.1 °F - 27.0 °F 51% 30.08 in 10.0 mi Calm Calm - 0.00 in   Partly Cloudy
7:52 PM 41.0 °F 34.3 °F 27.0 °F 57% 30.08 in 10.0 mi NNW 11.5 mph - N/A   Overcast
8:19 PM 35.6 °F 26.2 °F 30.2 °F 81% 30.04 in 7.0 mi NNW 15.0 mph 21.9 mph 0.00 in Snow Light Snow
8:52 PM 34.0 °F 28.8 °F 33.1 °F 96% 30.10 in 6.0 mi NW 5.8 mph - 0.01 in Snow Light Snow
9:15 PM 33.8 °F - 32.0 °F 93% 30.02 in 10.0 mi Calm Calm - 0.00 in   Mostly Cloudy
9:52 PM 32.0 °F 28.7 °F 32.0 °F 100% 30.09 in 10.0 mi WNW 3.5 mph - 0.00 in   Mostly Cloudy
10:52 PM 32.0 °F 27.5 °F 30.9 °F 96% 30.08 in 9.0 mi SW 4.6 mph - N/A   Clear
11:52 PM 30.9 °F 27.5 °F 30.9 °F 100% 30.06 in 7.0 mi South 3.5 mph - N/A   Partly Cloudy